Regional Weather Roundup
Issued by NWS Charleston, SC

Current Version | Previous Version | Graphics & Text | Print | Product List | Glossary On
Versions: 1 2 3 4 5 6 7 8 9 10 11 12 13 14 15 16 17 18 19 20 21 22 23 24 25 26 27 28 29 30 31 32 33 34 35 36 37 38 39 40 41 42 43 44 45 46 47 48 49 50
000
ASUS42 KCHS 300512
RWRCHS

REGIONAL WEATHER ROUNDUP
NATIONAL WEATHER SERVICE CHARLESTON SC
100 AM EDT SUN AUG 30 2015

NOTE: "FAIR" INDICATES FEW OR NO CLOUDS BELOW 12,000 FEET WITH NO
SIGNIFICANT WEATHER AND/OR OBSTRUCTIONS TO VISIBILITY.

NOT ALL STATIONS ARE QUALITY CONTROLLED BY THE NATIONAL
WEATHER SERVICE. USE DATA WITH CAUTION...ESPECIALLY
DEWPOINT OBSERVATIONS.

SCZ027-030-031-034>040-042>050-300600-
...SOUTHEAST SOUTH CAROLINA...

CITY           SKY/WX    TMP DP  RH WIND       PRES   REMARKS
N CHARLESTON   CLOUDY    75  71  87 NE5       30.12F
WATERFRONT PRK   N/A     79  75  87 NE5       30.10S
MOUNT PLEASANT FAIR      73  73 100 CALM      30.12F
JOHNS ISLAND   FAIR      77  73  88 CALM      30.12S
PINOPOLIS        N/A     79  70  73 CALM      30.06R
MONCKS CORNER  FAIR      72  68  88 CALM      30.13S
SUMMERVILLE    FAIR      70  70 100 CALM      30.14S
BEAUFORT MCAS  CLOUDY    75  72  90 NE5       30.11F
BEAUFORT ARPT  FAIR      77  75  94 CALM      30.11S
HILTON HEAD IS CLOUDY    81  75  83 NE5       30.11F
WALTERBORO     CLOUDY    73  68  83 CALM      30.13F
ALLENDALE      FAIR      73  66  78 CALM      30.12S

...SOUTHERN MIDLANDS AND PEE DEE...

CITY           SKY/WX    TMP DP  RH WIND       PRES   REMARKS
GEORGETOWN     NOT AVBL
KINGSTREE      NOT AVBL
ORANGEBURG     CLOUDY    70  63  78 CALM      30.14S
BARNWELL       FAIR      73  64  73 CALM      30.14S
AIKEN          FAIR      70  55  60 CALM      30.17F
MANNING        FAIR      66  61  82 CALM      30.13F
COLUMBIA       CLOUDY    76  60  57 CALM      30.13S
SUMTER         CLOUDY    69  61  75 NE3       30.12S
FLORENCE       CLOUDY    71  65  81 CALM      30.14S
MYRTLE BEACH   CLOUDY    75  66  73 CALM      30.15S
N MYRTLE BEACH CLOUDY    74  69  85 NE3       30.13F

$$

GAZ063-065-086>088-099>101-113>116-118-119-134>141-150-300600-
...SOUTHEAST GEORGIA...

CITY           SKY/WX    TMP DP  RH WIND       PRES   REMARKS
SAVANNAH ARPT  CLOUDY    76  72  87 E7        30.10F
HUNTER AAF     CLOUDY    77  77 100 NE2       30.08F
FORT STEWART   LGT RAIN  75  73  92 CALM      30.08S
STATESBORO     DRIZZLE   72  72 100 CALM      30.11F
SYLVANIA       DRIZZLE   72  72  99 CALM      30.13F
CLAXTON        NOT AVBL

...CSRA...CENTRAL AND FAR SOUTHEAST GEORGIA...

CITY           SKY/WX    TMP DP  RH WIND       PRES   REMARKS
THOMSON        CLOUDY    72  69  90 CALM      30.18S
AUGUSTA-BUSH   CLOUDY    70  67  90 CALM      30.12S
AUGUSTA-DANIEL CLOUDY    83  62  49 CALM      30.14S
SWAINSBORO     FAIR      75  70  83 E5        30.13S
VIDALIA        CLOUDY    72  70  94 E5        30.11F
EASTMAN        FAIR      74  74 100 CALM      30.13S
HAZLEHURST     MOCLDY    75  75 100 E6        30.09F
ALMA           CLOUDY    74  73  97 E5        30.09F
WAYCROSS       CLOUDY    77  77 100 CALM      30.09F
JESUP          CLOUDY    77  77 100 CALM      30.10F
BAXLEY         MOCLDY    75  73  94 E6        30.09F
BRUNSWICK      CLOUDY    77  75  94 CALM      30.09F
SAINT SIMONS   CLOUDY    82  75  79 SE12      30.08S

$$

SCZ027-028-034-036>038-045-046-048>050-GAZ119-141-300600-
...LAKE AND SUPPLEMENTAL COASTAL OBSERVATIONS...

STATION/POSITION TIME  TEMP    WIND        PRES    WAVE   SWELL
                       AIR SEA DIR/SP/G            HT/PER HT/PER/DIR
                 (UTC) (F)     (DEG/KT/KT) (MB)    (FT/S) (FT/S/D)
UPR LAKE MARION  NOT AVBL
WINYAH BAY       NOT AVBL
LAKE MURRAY      0400   78      CALM  /  3 1020.0F
ACE BASIN NERRS  NOT AVBL
FORT PULASKI     NOT AVBL
SAPELO ISLAND    0400   80      90/  6     1019.0S

$$

ANZ835-935-AMZ111-154-330-350-352-354-370-450-454-472-300600-
...C-MAN AND BUOY OBSERVATIONS...

STATION/POSITION TIME  TEMP    WIND        PRES    WAVE   SWELL
                       AIR SEA DIR/SP/G            HT/PER HT/PER/DIR
                 (UTC) (F)     (DEG/KT/KT) (MB)    (FT/S) (FT/S/D)
BUOY 41004       0450   80 85   60/  8/ 10 1019.4F   4/11   3/11
BUOY 41008       0450   83 85  100/ 12/ 16 1018.8F   3/11   3/ 90/11
FOLLY BEACH CMAN 0400   81      80/ 10/ 13 1020.2R
CAPERS NEARSHORE 0408   81     100/ 10/ 12 1020.3S
FRIPP NEARSHORE  0400   81     100/ 10/ 14 1019.5R


STATION/POSITION TIME  TEMP    WIND        PRES    WAVE   SWELL
                       AIR SEA DIR/SP/G            HT/PER HT/PER/DIR
                 (UTC) (F)     (DEG/KT/KT) (MB)    (FT/S) (FT/S/D)
5E ST. MARYS GA  0421      86                N/A     4/12   2/130/12
FRYING PAN BUOY  0450   81 81   70/ 10/ 12 1020.6R   5/11   3/150/11
BUOY 41025       0450   79 82   10/ 10/ 12 1019.3R   4/11   3/ 90/11
CAPE LOOKOUT NC  0400   76     360/  6/  6 1019.9S
BUOY 41002       0450   83 84  240/  6/  8 1020.6R   5/11   5/110/11
BUOY 41010       0420   84 85  120/ 17/ 23 1019.0R
ST AUGUSTINE FL  0500   77 85  160/ 19/ 21 1019.4F


$$



USA.gov is the U.S. government's official web portal to all federal, state and local government web resources and services.